Tracking 19575 objects as of 19-Feb-2019
HD Live streaming from Space Station
objects crossing your sky now

SIRIO

Track SIRIO now!
SIRIO is classified as:


NORAD ID: 10294
Int'l Code: 1977-080A
Perigee: 35,761.2 km
Apogee: 35,825.3 km
Inclination: 12.8 °
Period: 1,436.1 minutes
Semi major axis: 42164 km
RCS: 0.14 m2 (medium)
Launch date: August 25, 1977
Source: Italy (IT)
Launch site: AIR FORCE EASTERN TEST RANGE (AFETR)
aabbcc
Your satellite tracking list
Your tracking list is empty




NASA's NSSDC Master Catalog

Two Line Element Set (TLE):
1 10294U 77080A   19049.80042203 -.00000103 +00000-0 +00000-0 0  9995
2 10294 012.7647 325.3430 0007599 057.9696 127.8071 01.00273624091097
Source of the keplerian elements: AFSPC